Year,Month,Day,Hour,Minute,Value (Times are PST for temperature in C)
2017,11,26,00,00,7.90
2017,11,26,00,01,7.90
2017,11,26,00,02,7.90
2017,11,26,00,03,7.90
2017,11,26,00,04,7.90
2017,11,26,00,05,7.90
2017,11,26,00,06,7.90
2017,11,26,00,07,7.90
2017,11,26,00,08,8.00
2017,11,26,00,09,8.00
2017,11,26,00,10,8.00
2017,11,26,00,11,8.00
2017,11,26,00,12,8.00
2017,11,26,00,13,8.00
2017,11,26,00,14,8.00
2017,11,26,00,15,8.00
2017,11,26,00,16,8.00
2017,11,26,00,17,8.00
2017,11,26,00,18,8.10
2017,11,26,00,19,8.10
2017,11,26,00,20,8.10
2017,11,26,00,21,8.10
2017,11,26,00,22,8.10
2017,11,26,00,23,8.10
2017,11,26,00,24,8.10
2017,11,26,00,25,8.20
2017,11,26,00,26,8.20
2017,11,26,00,27,8.20
2017,11,26,00,28,8.20
2017,11,26,00,29,8.20
2017,11,26,00,30,8.20
2017,11,26,00,31,8.20
2017,11,26,00,32,8.20
2017,11,26,00,33,8.20
2017,11,26,00,34,8.20
2017,11,26,00,35,8.20
2017,11,26,00,36,8.20
2017,11,26,00,37,8.20
2017,11,26,00,38,8.20
2017,11,26,00,39,8.30
2017,11,26,00,40,8.30
2017,11,26,00,41,8.30
2017,11,26,00,42,8.30
2017,11,26,00,43,8.30
2017,11,26,00,44,8.30
2017,11,26,00,45,8.30
2017,11,26,00,46,8.30
2017,11,26,00,47,8.30
2017,11,26,00,48,8.30
2017,11,26,00,49,8.30
2017,11,26,00,50,8.40
2017,11,26,00,51,8.40
2017,11,26,00,52,8.40
2017,11,26,00,53,8.40
2017,11,26,00,54,8.40
2017,11,26,00,55,8.40
2017,11,26,00,56,8.40
2017,11,26,00,57,8.40
2017,11,26,00,58,8.40
2017,11,26,00,59,8.50
2017,11,26,01,00,8.50
2017,11,26,01,01,8.50
2017,11,26,01,02,8.50
2017,11,26,01,03,8.50
2017,11,26,01,04,8.50
2017,11,26,01,05,8.50
2017,11,26,01,06,8.50
2017,11,26,01,07,8.60
2017,11,26,01,08,8.60
2017,11,26,01,09,8.60
2017,11,26,01,10,8.60
2017,11,26,01,11,8.60
2017,11,26,01,12,8.60
2017,11,26,01,13,8.70
2017,11,26,01,14,8.70
2017,11,26,01,15,8.70
2017,11,26,01,16,8.70
2017,11,26,01,17,8.70
2017,11,26,01,18,8.70
2017,11,26,01,19,8.70
2017,11,26,01,20,8.70
2017,11,26,01,21,8.80
2017,11,26,01,22,8.80
2017,11,26,01,23,8.80
2017,11,26,01,24,8.80
2017,11,26,01,25,8.80
2017,11,26,01,26,8.80
2017,11,26,01,27,8.80
2017,11,26,01,28,8.80
2017,11,26,01,29,8.80
2017,11,26,01,30,8.80
2017,11,26,01,31,8.80
2017,11,26,01,32,8.80
2017,11,26,01,33,8.80
2017,11,26,01,34,8.90
2017,11,26,01,35,8.90
2017,11,26,01,36,8.90
2017,11,26,01,37,8.90
2017,11,26,01,38,8.90
2017,11,26,01,39,8.90
2017,11,26,01,40,8.90
2017,11,26,01,41,8.90
2017,11,26,01,42,8.90
2017,11,26,01,43,8.90
2017,11,26,01,44,8.90
2017,11,26,01,45,8.90
2017,11,26,01,46,8.90
2017,11,26,01,47,9.00
2017,11,26,01,48,9.00
2017,11,26,01,49,9.00
2017,11,26,01,50,9.00
2017,11,26,01,51,9.00
2017,11,26,01,52,9.00
2017,11,26,01,53,9.00
2017,11,26,01,54,9.00
2017,11,26,01,55,9.10
2017,11,26,01,56,9.10
2017,11,26,01,57,9.10
2017,11,26,01,58,9.10
2017,11,26,01,59,9.10
2017,11,26,02,00,9.10
2017,11,26,02,01,9.10
2017,11,26,02,02,9.10
2017,11,26,02,03,9.10
2017,11,26,02,04,9.10
2017,11,26,02,05,9.10
2017,11,26,02,06,9.10
2017,11,26,02,07,9.10
2017,11,26,02,08,9.10
2017,11,26,02,09,9.10
2017,11,26,02,10,9.10
2017,11,26,02,11,9.10
2017,11,26,02,12,9.10
2017,11,26,02,13,9.10
2017,11,26,02,14,9.10
2017,11,26,02,15,9.10
2017,11,26,02,16,9.10
2017,11,26,02,17,9.20
2017,11,26,02,18,9.10
2017,11,26,02,19,9.20
2017,11,26,02,20,9.20
2017,11,26,02,21,9.20
2017,11,26,02,22,9.20
2017,11,26,02,23,9.20
2017,11,26,02,24,9.20
2017,11,26,02,25,9.20
2017,11,26,02,26,9.20
2017,11,26,02,27,9.20
2017,11,26,02,28,9.20
2017,11,26,02,29,9.20
2017,11,26,02,30,9.20
2017,11,26,02,31,9.20
2017,11,26,02,32,9.20
2017,11,26,02,33,9.20
2017,11,26,02,34,9.20
2017,11,26,02,35,9.20
2017,11,26,02,36,9.20
2017,11,26,02,37,9.20
2017,11,26,02,38,9.20
2017,11,26,02,39,9.20
2017,11,26,02,40,9.20
2017,11,26,02,41,9.20
2017,11,26,02,42,9.20
2017,11,26,02,43,9.20
2017,11,26,02,44,9.20
2017,11,26,02,45,9.20
2017,11,26,02,46,9.20
2017,11,26,02,47,9.20
2017,11,26,02,48,9.20
2017,11,26,02,49,9.30
2017,11,26,02,50,9.30
2017,11,26,02,51,9.30
2017,11,26,02,52,9.30
2017,11,26,02,53,9.30
2017,11,26,02,54,9.30
2017,11,26,02,55,9.30
2017,11,26,02,56,9.30
2017,11,26,02,57,9.30
2017,11,26,02,58,9.30
2017,11,26,02,59,9.40
2017,11,26,03,00,9.40
2017,11,26,03,01,9.40
2017,11,26,03,02,9.40
2017,11,26,03,03,9.40
2017,11,26,03,04,9.40
2017,11,26,03,05,9.40
2017,11,26,03,06,9.40
2017,11,26,03,07,9.40
2017,11,26,03,08,9.40
2017,11,26,03,09,9.40
2017,11,26,03,10,9.40
2017,11,26,03,11,9.40
2017,11,26,03,12,9.50
2017,11,26,03,13,9.50
2017,11,26,03,14,9.50
2017,11,26,03,15,9.50
2017,11,26,03,16,9.50
2017,11,26,03,17,9.50
2017,11,26,03,18,9.50
2017,11,26,03,19,9.50
2017,11,26,03,20,9.50
2017,11,26,03,21,9.50
2017,11,26,03,22,9.50
2017,11,26,03,23,9.50
2017,11,26,03,24,9.50
2017,11,26,03,25,9.40
2017,11,26,03,26,9.40
2017,11,26,03,27,9.40
2017,11,26,03,28,9.40
2017,11,26,03,29,9.40
2017,11,26,03,30,9.40
2017,11,26,03,31,9.40
2017,11,26,03,32,9.40
2017,11,26,03,33,9.40
2017,11,26,03,34,9.40
2017,11,26,03,35,9.40
2017,11,26,03,36,9.30
2017,11,26,03,37,9.30
2017,11,26,03,38,9.30
2017,11,26,03,39,9.30
2017,11,26,03,40,9.30
2017,11,26,03,41,9.30
2017,11,26,03,42,9.30
2017,11,26,03,43,9.30
2017,11,26,03,44,9.30
2017,11,26,03,45,9.30
2017,11,26,03,46,9.30
2017,11,26,03,47,9.30
2017,11,26,03,48,9.20
2017,11,26,03,49,9.20
2017,11,26,03,50,9.20
2017,11,26,03,51,9.20
2017,11,26,03,52,9.20
2017,11,26,03,53,9.20
2017,11,26,03,54,9.20
2017,11,26,03,55,9.20
2017,11,26,03,56,9.20
2017,11,26,03,57,9.20
2017,11,26,03,58,9.20
2017,11,26,03,59,9.20
2017,11,26,04,00,9.20
2017,11,26,04,01,9.20
2017,11,26,04,02,9.20
2017,11,26,04,03,9.20
2017,11,26,04,04,9.20
2017,11,26,04,05,9.20
2017,11,26,04,06,9.20
2017,11,26,04,07,9.20
2017,11,26,04,08,9.20
2017,11,26,04,09,9.30
2017,11,26,04,10,9.30
2017,11,26,04,11,9.30
2017,11,26,04,12,9.30
2017,11,26,04,13,9.30
2017,11,26,04,14,9.30
2017,11,26,04,15,9.40
2017,11,26,04,16,9.40
2017,11,26,04,17,9.40
2017,11,26,04,18,9.40
2017,11,26,04,19,9.50
2017,11,26,04,20,9.50
2017,11,26,04,21,9.60
2017,11,26,04,22,9.60
2017,11,26,04,23,9.60
2017,11,26,04,24,9.60
2017,11,26,04,25,9.60
2017,11,26,04,26,9.70
2017,11,26,04,27,9.70
2017,11,26,04,28,9.70
2017,11,26,04,29,9.70
2017,11,26,04,30,9.70
2017,11,26,04,31,9.70
2017,11,26,04,32,9.70
2017,11,26,04,33,9.70
2017,11,26,04,34,9.70
2017,11,26,04,35,9.70
2017,11,26,04,36,9.70
2017,11,26,04,37,9.70
2017,11,26,04,38,9.70
2017,11,26,04,39,9.80
2017,11,26,04,40,9.80
2017,11,26,04,41,9.80
2017,11,26,04,42,9.80
2017,11,26,04,43,9.80
2017,11,26,04,44,9.80
2017,11,26,04,45,9.80
2017,11,26,04,46,9.80
2017,11,26,04,47,9.80
2017,11,26,04,48,9.90
2017,11,26,04,49,9.90
2017,11,26,04,50,9.90
2017,11,26,04,51,9.90
2017,11,26,04,52,9.90
2017,11,26,04,53,9.90
2017,11,26,04,54,9.90
2017,11,26,04,55,9.90
2017,11,26,04,56,9.90
2017,11,26,04,57,9.90
2017,11,26,04,58,10.00
2017,11,26,04,59,10.00
2017,11,26,05,00,10.00
2017,11,26,05,01,10.00
2017,11,26,05,02,10.10
2017,11,26,05,03,10.10
2017,11,26,05,04,10.10
2017,11,26,05,05,10.10
2017,11,26,05,06,10.10
2017,11,26,05,07,10.10
2017,11,26,05,08,10.10
2017,11,26,05,09,10.10
2017,11,26,05,10,10.10
2017,11,26,05,11,10.10
2017,11,26,05,12,10.10
2017,11,26,05,13,10.10
2017,11,26,05,14,10.10
2017,11,26,05,15,10.10
2017,11,26,05,16,10.10
2017,11,26,05,17,10.10
2017,11,26,05,18,10.20
2017,11,26,05,19,10.20
2017,11,26,05,20,10.20
2017,11,26,05,21,10.20
2017,11,26,05,22,10.20
2017,11,26,05,23,10.20
2017,11,26,05,24,10.20
2017,11,26,05,25,10.20
2017,11,26,05,26,10.20
2017,11,26,05,27,10.20
2017,11,26,05,28,10.20
2017,11,26,05,29,10.20
2017,11,26,05,30,10.20
2017,11,26,05,31,10.20
2017,11,26,05,32,10.20
2017,11,26,05,33,10.20
2017,11,26,05,34,10.20
2017,11,26,05,35,10.20
2017,11,26,05,36,10.20
2017,11,26,05,37,10.20
2017,11,26,05,38,10.20
2017,11,26,05,39,10.20
2017,11,26,05,40,10.20
2017,11,26,05,41,10.20
2017,11,26,05,42,10.20
2017,11,26,05,43,10.20
2017,11,26,05,44,10.20
2017,11,26,05,45,10.20
2017,11,26,05,46,10.20
2017,11,26,05,47,10.20
2017,11,26,05,48,10.20
2017,11,26,05,49,10.20
2017,11,26,05,50,10.20
2017,11,26,05,51,10.20
2017,11,26,05,52,10.20
2017,11,26,05,53,10.20
2017,11,26,05,54,10.20
2017,11,26,05,55,10.20
2017,11,26,05,56,10.20
2017,11,26,05,57,10.20
2017,11,26,05,58,10.20
2017,11,26,05,59,10.20
2017,11,26,06,00,10.10
2017,11,26,06,01,10.10
2017,11,26,06,02,10.10
2017,11,26,06,03,10.10
2017,11,26,06,04,10.10
2017,11,26,06,05,10.10
2017,11,26,06,06,10.10
2017,11,26,06,07,10.10
2017,11,26,06,08,10.00
2017,11,26,06,09,10.00
2017,11,26,06,10,10.00
2017,11,26,06,11,10.00
2017,11,26,06,12,9.90
2017,11,26,06,13,9.90
2017,11,26,06,14,9.90
2017,11,26,06,15,9.90
2017,11,26,06,16,9.90
2017,11,26,06,17,9.80
2017,11,26,06,18,9.80
2017,11,26,06,19,9.80
2017,11,26,06,20,9.80
2017,11,26,06,21,9.70
2017,11,26,06,22,9.70
2017,11,26,06,23,9.70
2017,11,26,06,24,9.70
2017,11,26,06,25,9.60
2017,11,26,06,26,9.60
2017,11,26,06,27,9.60
2017,11,26,06,28,9.60
2017,11,26,06,29,9.60
2017,11,26,06,30,9.50
2017,11,26,06,31,9.50
2017,11,26,06,32,9.40
2017,11,26,06,33,9.40
2017,11,26,06,34,9.40
2017,11,26,06,35,9.30
2017,11,26,06,36,9.30
2017,11,26,06,37,9.30
2017,11,26,06,38,9.30
2017,11,26,06,39,9.30
2017,11,26,06,40,9.30
2017,11,26,06,41,9.20
2017,11,26,06,42,9.20
2017,11,26,06,43,9.20
2017,11,26,06,44,9.20
2017,11,26,06,45,9.30
2017,11,26,06,46,9.30
2017,11,26,06,47,9.30
2017,11,26,06,48,9.30
2017,11,26,06,49,9.30
2017,11,26,06,50,9.30
2017,11,26,06,51,9.20
2017,11,26,06,52,9.20
2017,11,26,06,53,9.10
2017,11,26,06,54,9.10
2017,11,26,06,55,9.10
2017,11,26,06,56,9.10
2017,11,26,06,57,9.10
2017,11,26,06,58,9.00
2017,11,26,06,59,9.00
2017,11,26,07,00,9.10
2017,11,26,07,01,9.00
2017,11,26,07,02,9.00
2017,11,26,07,03,8.90
2017,11,26,07,04,8.90
2017,11,26,07,05,8.90
2017,11,26,07,06,8.90
2017,11,26,07,07,8.90
2017,11,26,07,08,8.90
2017,11,26,07,09,8.90
2017,11,26,07,10,8.90
2017,11,26,07,11,8.80
2017,11,26,07,12,8.80
2017,11,26,07,13,8.80
2017,11,26,07,14,8.80
2017,11,26,07,15,8.70
2017,11,26,07,16,8.70
2017,11,26,07,17,8.70
2017,11,26,07,18,8.70
2017,11,26,07,19,8.70
2017,11,26,07,20,8.80
2017,11,26,07,21,8.80
2017,11,26,07,22,8.80
2017,11,26,07,23,8.80
2017,11,26,07,24,8.80
2017,11,26,07,25,8.80
2017,11,26,07,26,8.80
2017,11,26,07,27,8.80
2017,11,26,07,28,8.80
2017,11,26,07,29,8.80
2017,11,26,07,30,8.70
2017,11,26,07,31,8.70
2017,11,26,07,32,8.70
2017,11,26,07,33,8.60
2017,11,26,07,34,8.60
2017,11,26,07,35,8.60
2017,11,26,07,36,8.60
2017,11,26,07,37,8.70
2017,11,26,07,38,8.70
2017,11,26,07,39,8.70
2017,11,26,07,40,8.70
2017,11,26,07,41,8.70
2017,11,26,07,42,8.70
2017,11,26,07,43,8.70
2017,11,26,07,44,8.70
2017,11,26,07,45,8.60
2017,11,26,07,46,8.60
2017,11,26,07,47,8.60
2017,11,26,07,48,8.60
2017,11,26,07,49,8.60
2017,11,26,07,50,8.60
2017,11,26,07,51,8.60
2017,11,26,07,52,8.60
2017,11,26,07,53,8.60
2017,11,26,07,54,8.50
2017,11,26,07,55,8.50
2017,11,26,07,56,8.50
2017,11,26,07,57,8.50
2017,11,26,07,58,8.40
2017,11,26,07,59,8.40
2017,11,26,08,00,8.40
2017,11,26,08,01,8.40
2017,11,26,08,02,8.40
2017,11,26,08,03,8.40
2017,11,26,08,04,8.40
2017,11,26,08,05,8.40
2017,11,26,08,06,8.40
2017,11,26,08,07,8.40
2017,11,26,08,08,8.40
2017,11,26,08,09,8.40
2017,11,26,08,10,8.40
2017,11,26,08,11,8.40
2017,11,26,08,12,8.40
2017,11,26,08,13,8.40
2017,11,26,08,14,8.40
2017,11,26,08,15,8.40
2017,11,26,08,16,8.40
2017,11,26,08,17,8.30
2017,11,26,08,18,8.30
2017,11,26,08,19,8.30
2017,11,26,08,20,8.30
2017,11,26,08,21,8.30
2017,11,26,08,22,8.30
2017,11,26,08,23,8.30
2017,11,26,08,24,8.20
2017,11,26,08,25,8.20
2017,11,26,08,26,8.20
2017,11,26,08,27,8.20
2017,11,26,08,28,8.20
2017,11,26,08,29,8.20
2017,11,26,08,30,8.20
2017,11,26,08,31,8.20
2017,11,26,08,32,8.20
2017,11,26,08,33,8.20
2017,11,26,08,34,8.20
2017,11,26,08,35,8.20
2017,11,26,08,36,8.20
2017,11,26,08,37,8.20
2017,11,26,08,38,8.20
2017,11,26,08,39,8.30
2017,11,26,08,40,8.30
2017,11,26,08,41,8.30
2017,11,26,08,42,8.30
2017,11,26,08,43,8.30
2017,11,26,08,44,8.30
2017,11,26,08,45,8.30
2017,11,26,08,46,8.30
2017,11,26,08,47,8.30
2017,11,26,08,48,8.20
2017,11,26,08,49,8.30
2017,11,26,08,50,8.20
2017,11,26,08,51,8.30
2017,11,26,08,52,8.30
2017,11,26,08,53,8.30
2017,11,26,08,54,8.30
2017,11,26,08,55,8.30
2017,11,26,08,56,8.30
2017,11,26,08,57,8.30
2017,11,26,08,58,8.30
2017,11,26,08,59,8.30
2017,11,26,09,00,8.30
2017,11,26,09,01,8.30
2017,11,26,09,02,8.30
2017,11,26,09,03,8.30
2017,11,26,09,04,8.30
2017,11,26,09,05,8.30
2017,11,26,09,06,8.30
2017,11,26,09,07,8.30
2017,11,26,09,08,8.30
2017,11,26,09,09,8.30
2017,11,26,09,10,8.30
2017,11,26,09,11,8.20
2017,11,26,09,12,8.20
2017,11,26,09,13,8.20
2017,11,26,09,14,8.20
2017,11,26,09,15,8.20
2017,11,26,09,16,8.20
2017,11,26,09,17,8.20
2017,11,26,09,18,8.30
2017,11,26,09,19,8.30
2017,11,26,09,20,8.30
2017,11,26,09,21,8.30
2017,11,26,09,22,8.30
2017,11,26,09,23,8.30
2017,11,26,09,24,8.40
2017,11,26,09,25,8.40
2017,11,26,09,26,8.40
2017,11,26,09,27,8.40
2017,11,26,09,28,8.40
2017,11,26,09,29,8.50
2017,11,26,09,30,8.50
2017,11,26,09,31,8.50
2017,11,26,09,32,8.50
2017,11,26,09,33,8.50
2017,11,26,09,34,8.50
2017,11,26,09,35,8.50
2017,11,26,09,36,8.40
2017,11,26,09,37,8.40
2017,11,26,09,38,8.40
2017,11,26,09,39,8.40
2017,11,26,09,40,8.40
2017,11,26,09,41,8.40
2017,11,26,09,42,8.40
2017,11,26,09,43,8.40
2017,11,26,09,44,8.40
2017,11,26,09,45,8.40
2017,11,26,09,46,8.40
2017,11,26,09,47,8.40
2017,11,26,09,48,8.40
2017,11,26,09,49,8.40
2017,11,26,09,50,8.40
2017,11,26,09,51,8.40
2017,11,26,09,52,8.40
2017,11,26,09,53,8.40
2017,11,26,09,54,8.40
2017,11,26,09,55,8.40
2017,11,26,09,56,8.40
2017,11,26,09,57,8.40
2017,11,26,09,58,8.40
2017,11,26,09,59,8.40
2017,11,26,10,00,8.40
2017,11,26,10,01,8.40
2017,11,26,10,02,8.40
2017,11,26,10,03,8.40
2017,11,26,10,04,8.40
2017,11,26,10,05,8.40
2017,11,26,10,06,8.40
2017,11,26,10,07,8.40
2017,11,26,10,08,8.40
2017,11,26,10,09,8.40
2017,11,26,10,10,8.40
2017,11,26,10,11,8.40
2017,11,26,10,12,8.40
2017,11,26,10,13,8.30
2017,11,26,10,14,8.30
2017,11,26,10,15,8.30
2017,11,26,10,16,8.30
2017,11,26,10,17,8.30
2017,11,26,10,18,8.30
2017,11,26,10,19,8.30
2017,11,26,10,20,8.30
2017,11,26,10,21,8.30
2017,11,26,10,22,8.30
2017,11,26,10,23,8.20
2017,11,26,10,24,8.20
2017,11,26,10,25,8.20
2017,11,26,10,26,8.20
2017,11,26,10,27,8.20
2017,11,26,10,28,8.20
2017,11,26,10,29,8.20
2017,11,26,10,30,8.10
2017,11,26,10,31,8.10
2017,11,26,10,32,8.10
2017,11,26,10,33,8.00
2017,11,26,10,34,8.00
2017,11,26,10,35,7.90
2017,11,26,10,36,7.90
2017,11,26,10,37,7.90
2017,11,26,10,38,7.80
2017,11,26,10,39,7.80
2017,11,26,10,40,7.80
2017,11,26,10,41,7.80
2017,11,26,10,42,7.70
2017,11,26,10,43,7.70
2017,11,26,10,44,7.70
2017,11,26,10,45,7.60
2017,11,26,10,46,7.50
2017,11,26,10,47,7.40
2017,11,26,10,48,7.30
2017,11,26,10,49,7.40
2017,11,26,10,50,7.50
2017,11,26,10,51,7.50
2017,11,26,10,52,7.60
2017,11,26,10,53,7.70
2017,11,26,10,54,7.70
2017,11,26,10,55,7.70
2017,11,26,10,56,7.70
2017,11,26,10,57,7.80
2017,11,26,10,58,7.80
2017,11,26,10,59,7.90
2017,11,26,11,00,8.00
2017,11,26,11,01,8.00
2017,11,26,11,02,7.90
2017,11,26,11,03,7.90
2017,11,26,11,04,7.90
2017,11,26,11,05,7.90
2017,11,26,11,06,8.00
2017,11,26,11,07,7.90
2017,11,26,11,08,8.00
2017,11,26,11,09,8.00
2017,11,26,11,10,8.10
2017,11,26,11,11,8.10
2017,11,26,11,12,8.10
2017,11,26,11,13,8.10
2017,11,26,11,14,8.20
2017,11,26,11,15,8.20
2017,11,26,11,16,8.20
2017,11,26,11,17,8.10
2017,11,26,11,18,8.10
2017,11,26,11,19,8.10
2017,11,26,11,20,8.10
2017,11,26,11,21,8.10
2017,11,26,11,22,8.10
2017,11,26,11,23,8.20
2017,11,26,11,24,8.20
2017,11,26,11,25,8.10
2017,11,26,11,26,8.10
2017,11,26,11,27,8.10
2017,11,26,11,28,8.10
2017,11,26,11,29,8.20
2017,11,26,11,30,8.20
2017,11,26,11,31,8.20
2017,11,26,11,32,8.20
2017,11,26,11,33,8.20
2017,11,26,11,34,8.20
2017,11,26,11,35,8.20
2017,11,26,11,36,8.20
2017,11,26,11,37,8.20
2017,11,26,11,38,8.20
2017,11,26,11,39,8.20
2017,11,26,11,40,8.20
2017,11,26,11,41,8.20
2017,11,26,11,42,8.20
2017,11,26,11,43,8.20
2017,11,26,11,44,8.20
2017,11,26,11,45,8.30
2017,11,26,11,46,8.30
2017,11,26,11,47,8.30
2017,11,26,11,48,8.30
2017,11,26,11,49,8.30
2017,11,26,11,50,8.30
2017,11,26,11,51,8.30
2017,11,26,11,52,8.20
2017,11,26,11,53,8.20
2017,11,26,11,54,8.20
2017,11,26,11,55,8.20
2017,11,26,11,56,8.20
2017,11,26,11,57,8.20
2017,11,26,11,58,8.20
2017,11,26,11,59,8.20
2017,11,26,12,00,8.20
2017,11,26,12,01,8.20
2017,11,26,12,02,8.20
2017,11,26,12,03,8.20
2017,11,26,12,04,8.20
2017,11,26,12,05,8.20
2017,11,26,12,06,8.20
2017,11,26,12,07,8.20
2017,11,26,12,08,8.20
2017,11,26,12,09,8.20
2017,11,26,12,10,8.10
2017,11,26,12,11,8.10
2017,11,26,12,12,8.10
2017,11,26,12,13,8.20
2017,11,26,12,14,8.20
2017,11,26,12,15,8.20
2017,11,26,12,16,8.20
2017,11,26,12,17,8.20
2017,11,26,12,18,8.20
2017,11,26,12,19,8.20
2017,11,26,12,20,8.20
2017,11,26,12,21,8.20
2017,11,26,12,22,8.20
2017,11,26,12,23,8.20
2017,11,26,12,24,8.20
2017,11,26,12,25,8.20
2017,11,26,12,26,8.20
2017,11,26,12,27,8.20
2017,11,26,12,28,8.20
2017,11,26,12,29,8.20
2017,11,26,12,30,8.20
2017,11,26,12,31,8.20
2017,11,26,12,32,8.20
2017,11,26,12,33,8.20
2017,11,26,12,34,8.30
2017,11,26,12,35,8.30
2017,11,26,12,36,8.30
2017,11,26,12,37,8.30
2017,11,26,12,38,8.30
2017,11,26,12,39,8.30
2017,11,26,12,40,8.20
2017,11,26,12,41,8.20
2017,11,26,12,42,8.20
2017,11,26,12,43,8.20
2017,11,26,12,44,8.20
2017,11,26,12,45,8.20
2017,11,26,12,46,8.20
2017,11,26,12,47,8.30
2017,11,26,12,48,8.30
2017,11,26,12,49,8.30
2017,11,26,12,50,8.30
2017,11,26,12,51,8.30
2017,11,26,12,52,8.30
2017,11,26,12,53,8.30
2017,11,26,12,54,8.30
2017,11,26,12,55,8.30
2017,11,26,12,56,8.20
2017,11,26,12,57,8.10
2017,11,26,12,58,8.00
2017,11,26,12,59,7.90
2017,11,26,13,00,7.90
2017,11,26,13,01,7.80
2017,11,26,13,02,7.80
2017,11,26,13,03,7.80
2017,11,26,13,04,7.90
2017,11,26,13,05,7.90
2017,11,26,13,06,7.90
2017,11,26,13,07,8.00
2017,11,26,13,08,8.00
2017,11,26,13,09,8.10
2017,11,26,13,10,8.20
2017,11,26,13,11,8.20
2017,11,26,13,12,8.30
2017,11,26,13,13,8.40
2017,11,26,13,14,8.40
2017,11,26,13,15,8.50
2017,11,26,13,16,8.50
2017,11,26,13,17,8.60
2017,11,26,13,18,8.70
2017,11,26,13,19,8.70
2017,11,26,13,20,8.80
2017,11,26,13,21,8.90
2017,11,26,13,22,8.90
2017,11,26,13,23,8.90
2017,11,26,13,24,9.00
2017,11,26,13,25,9.10
2017,11,26,13,26,9.10
2017,11,26,13,27,9.10
2017,11,26,13,28,9.20
2017,11,26,13,29,9.20
2017,11,26,13,30,9.20
2017,11,26,13,31,9.20
2017,11,26,13,32,9.20
2017,11,26,13,33,9.20
2017,11,26,13,34,9.30
2017,11,26,13,35,9.30
2017,11,26,13,36,9.30
2017,11,26,13,37,9.30
2017,11,26,13,38,9.30
2017,11,26,13,39,9.40
2017,11,26,13,40,9.40
2017,11,26,13,41,9.50
2017,11,26,13,42,9.50
2017,11,26,13,43,9.60
2017,11,26,13,44,9.60
2017,11,26,13,45,9.70
2017,11,26,13,46,9.80
2017,11,26,13,47,9.80
2017,11,26,13,48,9.80
2017,11,26,13,49,9.80
2017,11,26,13,50,9.80
2017,11,26,13,51,9.80
2017,11,26,13,52,9.90
2017,11,26,13,53,9.90
2017,11,26,13,54,10.00
2017,11,26,13,55,10.00
2017,11,26,13,56,10.10
2017,11,26,13,57,10.10
2017,11,26,13,58,10.20
2017,11,26,13,59,10.20
2017,11,26,14,00,10.20
2017,11,26,14,01,10.20
2017,11,26,14,02,10.20
2017,11,26,14,03,10.10
2017,11,26,14,04,9.90
2017,11,26,14,05,9.90
2017,11,26,14,06,9.80
2017,11,26,14,07,9.70
2017,11,26,14,08,9.60
2017,11,26,14,09,9.50
2017,11,26,14,10,9.40
2017,11,26,14,11,9.30
2017,11,26,14,12,9.30
2017,11,26,14,13,9.20
2017,11,26,14,14,9.20
2017,11,26,14,15,9.20
2017,11,26,14,16,9.20
2017,11,26,14,17,9.20
2017,11,26,14,18,9.30
2017,11,26,14,19,9.30
2017,11,26,14,20,9.30
2017,11,26,14,21,9.30
2017,11,26,14,22,9.30
2017,11,26,14,23,9.20
2017,11,26,14,24,9.20
2017,11,26,14,25,9.20
2017,11,26,14,26,9.20
2017,11,26,14,27,9.20
2017,11,26,14,28,9.20
2017,11,26,14,29,9.20
2017,11,26,14,30,9.10
2017,11,26,14,31,9.10
2017,11,26,14,32,9.10
2017,11,26,14,33,9.10
2017,11,26,14,34,9.20
2017,11,26,14,35,9.20
2017,11,26,14,36,9.20
2017,11,26,14,37,9.30
2017,11,26,14,38,9.30
2017,11,26,14,39,9.20
2017,11,26,14,40,9.20
2017,11,26,14,41,9.20
2017,11,26,14,42,9.20
2017,11,26,14,43,9.20
2017,11,26,14,44,9.20
2017,11,26,14,45,9.20
2017,11,26,14,46,9.20
2017,11,26,14,47,9.20
2017,11,26,14,48,9.20
2017,11,26,14,49,9.10
2017,11,26,14,50,9.10
2017,11,26,14,51,9.00
2017,11,26,14,52,8.90
2017,11,26,14,53,8.90
2017,11,26,14,54,9.00
2017,11,26,14,55,9.20
2017,11,26,14,56,9.30
2017,11,26,14,57,9.40
2017,11,26,14,58,9.50
2017,11,26,14,59,9.50
2017,11,26,15,00,9.50
2017,11,26,15,01,9.50
2017,11,26,15,02,9.40
2017,11,26,15,03,9.30
2017,11,26,15,04,9.30
2017,11,26,15,05,9.30
2017,11,26,15,06,9.20
2017,11,26,15,07,9.20
2017,11,26,15,08,9.20
2017,11,26,15,09,9.20
2017,11,26,15,10,9.20
2017,11,26,15,11,9.20
2017,11,26,15,12,9.20
2017,11,26,15,13,9.10
2017,11,26,15,14,9.10
2017,11,26,15,15,9.00
2017,11,26,15,16,8.90
2017,11,26,15,17,8.80
2017,11,26,15,18,8.70
2017,11,26,15,19,8.70
2017,11,26,15,20,8.60
2017,11,26,15,21,8.50
2017,11,26,15,22,8.50
2017,11,26,15,23,8.40
2017,11,26,15,24,8.40
2017,11,26,15,25,8.40
2017,11,26,15,26,8.40
2017,11,26,15,27,8.30
2017,11,26,15,28,8.30
2017,11,26,15,29,8.30
2017,11,26,15,30,8.30
2017,11,26,15,31,8.30
2017,11,26,15,32,8.30
2017,11,26,15,33,8.20
2017,11,26,15,34,8.20
2017,11,26,15,35,8.20
2017,11,26,15,36,8.20
2017,11,26,15,37,8.10
2017,11,26,15,38,8.10
2017,11,26,15,39,8.10
2017,11,26,15,40,8.10
2017,11,26,15,41,8.00
2017,11,26,15,42,8.00
2017,11,26,15,43,8.00
2017,11,26,15,44,7.90
2017,11,26,15,45,7.90
2017,11,26,15,46,7.80
2017,11,26,15,47,7.80
2017,11,26,15,48,7.70
2017,11,26,15,49,7.70
2017,11,26,15,50,7.60
2017,11,26,15,51,7.60
2017,11,26,15,52,7.60
2017,11,26,15,53,7.60
2017,11,26,15,54,7.60
2017,11,26,15,55,7.60
2017,11,26,15,56,7.60
2017,11,26,15,57,7.60
2017,11,26,15,58,7.60
2017,11,26,15,59,7.60
2017,11,26,16,00,7.50
2017,11,26,16,01,7.50
2017,11,26,16,02,7.40
2017,11,26,16,03,7.40
2017,11,26,16,04,7.30
2017,11,26,16,05,7.20
2017,11,26,16,06,7.20
2017,11,26,16,07,7.10
2017,11,26,16,08,7.00
2017,11,26,16,09,7.00
2017,11,26,16,10,6.90
2017,11,26,16,11,6.90
2017,11,26,16,12,6.80
2017,11,26,16,13,6.80
2017,11,26,16,14,6.70
2017,11,26,16,15,6.60
2017,11,26,16,16,6.50
2017,11,26,16,17,6.50
2017,11,26,16,18,6.40
2017,11,26,16,19,6.30
2017,11,26,16,20,6.30
2017,11,26,16,21,6.20
2017,11,26,16,22,6.20
2017,11,26,16,23,6.20
2017,11,26,16,24,6.10
2017,11,26,16,25,6.10
2017,11,26,16,26,6.10
2017,11,26,16,27,6.10
2017,11,26,16,28,6.10
2017,11,26,16,29,6.20
2017,11,26,16,30,6.20
2017,11,26,16,31,6.20
2017,11,26,16,32,6.30
2017,11,26,16,33,6.40
2017,11,26,16,34,6.40
2017,11,26,16,35,6.40
2017,11,26,16,36,6.30
2017,11,26,16,37,6.30
2017,11,26,16,38,6.30
2017,11,26,16,39,6.30
2017,11,26,16,40,6.30
2017,11,26,16,41,6.30
2017,11,26,16,42,6.20
2017,11,26,16,43,6.20
2017,11,26,16,44,6.20
2017,11,26,16,45,6.20
2017,11,26,16,46,6.20
2017,11,26,16,47,6.20
2017,11,26,16,48,6.20
2017,11,26,16,49,6.30
2017,11,26,16,50,6.20
2017,11,26,16,51,6.20
2017,11,26,16,52,6.20
2017,11,26,16,53,6.20
2017,11,26,16,54,6.20
2017,11,26,16,55,6.20
2017,11,26,16,56,6.20
2017,11,26,16,57,6.20
2017,11,26,16,58,6.10
2017,11,26,16,59,6.10
2017,11,26,17,00,6.10
2017,11,26,17,01,6.00
2017,11,26,17,02,6.00
2017,11,26,17,03,6.00
2017,11,26,17,04,5.90
2017,11,26,17,05,5.90
2017,11,26,17,06,5.90
2017,11,26,17,07,5.90
2017,11,26,17,08,6.00
2017,11,26,17,09,6.00
2017,11,26,17,10,6.10
2017,11,26,17,11,6.10
2017,11,26,17,12,6.20
2017,11,26,17,13,6.30
2017,11,26,17,14,6.30
2017,11,26,17,15,6.40
2017,11,26,17,16,6.40
2017,11,26,17,17,6.40
2017,11,26,17,18,6.40
2017,11,26,17,19,6.40
2017,11,26,17,20,6.40
2017,11,26,17,21,6.40
2017,11,26,17,22,6.40
2017,11,26,17,23,6.30
2017,11,26,17,24,6.30
2017,11,26,17,25,6.30
2017,11,26,17,26,6.20
2017,11,26,17,27,6.10
2017,11,26,17,28,6.10
2017,11,26,17,29,6.00
2017,11,26,17,30,6.00
2017,11,26,17,31,5.90
2017,11,26,17,32,5.80
2017,11,26,17,33,5.70
2017,11,26,17,34,5.70
2017,11,26,17,35,5.60
2017,11,26,17,36,5.60
2017,11,26,17,37,5.50
2017,11,26,17,38,5.50
2017,11,26,17,39,5.40
2017,11,26,17,40,5.40
2017,11,26,17,41,5.30
2017,11,26,17,42,5.30
2017,11,26,17,43,5.30
2017,11,26,17,44,5.20
2017,11,26,17,45,5.20
2017,11,26,17,46,5.20
2017,11,26,17,47,5.20
2017,11,26,17,48,5.10
2017,11,26,17,49,5.10
2017,11,26,17,50,5.10
2017,11,26,17,51,5.00
2017,11,26,17,52,5.00
2017,11,26,17,53,4.90
2017,11,26,17,54,4.90
2017,11,26,17,55,4.90
2017,11,26,17,56,4.80
2017,11,26,17,57,4.80
2017,11,26,17,58,4.80
2017,11,26,17,59,4.80
2017,11,26,18,00,4.80
2017,11,26,18,01,4.80
2017,11,26,18,02,4.70